Time,TemperatureF,DewpointF,PressureIn,WindDirection,WindDirectionDegrees,WindSpeedMPH,WindSpeedGustMPH,Humidity,HourlyPrecipIn,Conditions,Clouds,dailyrainin,SoftwareType,DateUTC
2013-01-09 00:03:00,43.0,35.6,30.20,SSE,165,0.0,1.5,75,0.00,,OVC110,0.00,VWS V14.01,2013-01-09 06:03:00,
2013-01-09 00:08:00,43.2,35.8,30.20,SSE,165,1.5,6.0,75,0.00,,OVC110,0.00,VWS V14.01,2013-01-09 06:08:00,
2013-01-09 00:13:00,43.4,36.0,30.20,SSE,165,0.0,6.0,75,0.00,,OVC110,0.00,VWS V14.01,2013-01-09 06:13:00,
2013-01-09 00:18:00,43.6,36.2,30.20,SSE,165,0.0,6.0,75,0.00,,OVC110,0.00,VWS V14.01,2013-01-09 06:18:00,
2013-01-09 00:23:00,43.8,36.4,30.21,SSE,165,0.0,6.0,75,0.00,,OVC110,0.00,VWS V14.01,2013-01-09 06:23:00,
2013-01-09 00:28:00,43.9,36.5,30.21,SSE,165,0.0,6.0,75,0.00,,OVC110,0.00,VWS V14.01,2013-01-09 06:28:00,
2013-01-09 00:33:00,44.1,36.7,30.21,SSE,165,0.0,6.0,75,0.00,,OVC110,0.00,VWS V14.01,2013-01-09 06:33:00,
2013-01-09 00:38:00,44.3,36.5,30.22,SSE,165,0.0,6.0,74,0.00,,OVC110,0.00,VWS V14.01,2013-01-09 06:38:00,
2013-01-09 00:43:00,44.5,36.7,30.22,SSE,165,3.0,6.0,74,0.00,,OVC110,0.00,VWS V14.01,2013-01-09 06:43:00,
2013-01-09 00:48:00,44.7,36.9,30.22,SSE,165,0.0,9.0,74,0.00,,OVC110,0.00,VWS V14.01,2013-01-09 06:48:00,
2013-01-09 00:53:00,44.9,37.1,30.22,SSE,165,0.0,9.0,74,0.00,,OVC110,0.00,VWS V14.01,2013-01-09 06:53:00,
2013-01-09 00:58:00,45.1,37.3,30.22,SSE,165,1.5,9.0,74,0.00,,OVC110,0.00,VWS V14.01,2013-01-09 06:58:00,
2013-01-09 01:03:00,45.4,38.0,30.22,SSE,165,1.5,7.5,75,0.00,,RA,0.00,VWS V14.01,2013-01-09 07:03:00,
2013-01-09 01:09:00,45.7,38.6,30.23,SSE,165,0.0,7.5,76,0.00,,RA,0.00,VWS V14.01,2013-01-09 07:09:00,
2013-01-09 01:14:00,45.8,39.0,30.23,SSE,165,3.0,9.0,77,0.00,,RA,0.00,VWS V14.01,2013-01-09 07:14:00,
2013-01-09 01:19:00,46.0,39.5,30.23,South,187,6.0,9.0,78,0.00,,RA,0.00,VWS V14.01,2013-01-09 07:19:00,
2013-01-09 01:24:00,46.0,40.2,30.23,South,175,7.5,12.0,80,0.01,,RA,0.01,VWS V14.01,2013-01-09 07:24:00,
2013-01-09 01:29:00,45.8,40.3,30.23,South,191,7.5,12.0,81,0.01,,RA,0.01,VWS V14.01,2013-01-09 07:29:00,
2013-01-09 01:34:00,45.6,40.7,30.23,SSW,205,0.0,12.0,83,0.01,,RA,0.01,VWS V14.01,2013-01-09 07:34:00,
2013-01-09 01:39:00,45.5,41.0,30.23,SSW,211,3.0,12.0,84,0.02,,RA,0.02,VWS V14.01,2013-01-09 07:39:00,
2013-01-09 01:44:00,45.3,41.1,30.23,SSW,201,6.0,12.0,85,0.02,,RA,0.02,VWS V14.01,2013-01-09 07:44:00,
2013-01-09 01:49:00,45.2,41.3,30.24,SSW,198,0.0,12.0,86,0.03,,RA,0.03,VWS V14.01,2013-01-09 07:49:00,
2013-01-09 01:54:00,45.1,41.5,30.24,SSW,198,4.5,12.0,87,0.03,,RA,0.03,VWS V14.01,2013-01-09 07:54:00,
2013-01-09 01:59:00,45.0,41.4,30.24,SSW,198,0.0,12.0,87,0.04,,RA,0.04,VWS V14.01,2013-01-09 07:59:00,
2013-01-09 02:04:00,44.9,41.6,30.24,SSW,198,0.0,3.0,88,0.04,,-RA,0.04,VWS V14.01,2013-01-09 08:04:00,
2013-01-09 02:09:00,44.8,41.5,30.24,SSW,198,0.0,4.5,88,0.05,,-RA,0.05,VWS V14.01,2013-01-09 08:09:00,
2013-01-09 02:14:00,44.7,41.7,30.24,SSW,198,0.0,4.5,89,0.05,,-RA,0.05,VWS V14.01,2013-01-09 08:14:00,
2013-01-09 02:19:00,44.7,41.7,30.25,SSW,198,0.0,4.5,89,0.05,,-RA,0.05,VWS V14.01,2013-01-09 08:19:00,
2013-01-09 02:24:00,44.6,41.6,30.25,SSW,198,4.5,4.5,89,0.06,,-RA,0.06,VWS V14.01,2013-01-09 08:24:00,
2013-01-09 02:29:00,44.5,41.8,30.25,SSW,198,0.0,0.0,90,0.05,,-RA,0.06,VWS V14.01,2013-01-09 08:29:00,
2013-01-09 02:34:00,44.4,41.7,30.25,SSW,198,1.5,3.0,90,0.05,,-RA,0.06,VWS V14.01,2013-01-09 08:34:00,
2013-01-09 02:39:00,44.1,41.4,30.26,SSW,207,0.0,3.0,90,0.06,,-RA,0.07,VWS V14.01,2013-01-09 08:39:00,
2013-01-09 02:44:00,44.0,41.5,30.26,SSW,209,1.5,4.5,91,0.07,,-RA,0.08,VWS V14.01,2013-01-09 08:44:00,
2013-01-09 02:49:00,44.0,41.5,30.26,SSW,209,0.0,4.5,91,0.08,,-RA,0.09,VWS V14.01,2013-01-09 08:49:00,
2013-01-09 02:54:00,44.0,41.8,30.25,SSW,209,0.0,4.5,92,0.08,,-RA,0.09,VWS V14.01,2013-01-09 08:54:00,
2013-01-09 02:59:00,44.0,41.8,30.26,SSW,209,0.0,0.0,92,0.06,,-RA,0.10,VWS V14.01,2013-01-09 08:59:00,
2013-01-09 03:04:00,44.1,41.9,30.26,SSW,209,0.0,4.5,92,0.07,,-RA,0.11,VWS V14.01,2013-01-09 09:04:00,
2013-01-09 03:09:00,44.1,41.9,30.26,SSW,209,0.0,4.5,92,0.08,,-RA,0.12,VWS V14.01,2013-01-09 09:09:00,
2013-01-09 03:14:00,44.2,42.0,30.26,SSW,209,0.0,4.5,92,0.08,,-RA,0.12,VWS V14.01,2013-01-09 09:14:00,
2013-01-09 03:19:00,44.2,42.3,30.26,SSW,209,0.0,4.5,93,0.08,,-RA,0.12,VWS V14.01,2013-01-09 09:19:00,
2013-01-09 03:24:00,44.2,42.3,30.27,SSW,209,0.0,4.5,93,0.08,,-RA,0.12,VWS V14.01,2013-01-09 09:24:00,
2013-01-09 03:29:00,44.1,42.2,30.27,SSW,209,0.0,0.0,93,0.07,,-RA,0.13,VWS V14.01,2013-01-09 09:29:00,
2013-01-09 03:34:00,44.2,42.3,30.27,SSW,209,0.0,1.5,93,0.07,,-RA,0.13,VWS V14.01,2013-01-09 09:34:00,
2013-01-09 03:40:00,44.1,42.2,30.27,SSW,209,0.0,3.0,93,0.07,,-RA,0.13,VWS V14.01,2013-01-09 09:40:00,
2013-01-09 03:45:00,44.1,42.2,30.28,SSW,209,3.0,3.0,93,0.08,,-RA,0.14,VWS V14.01,2013-01-09 09:45:00,
2013-01-09 03:50:00,44.2,42.3,30.28,WNW,292,6.0,6.0,93,0.08,,-RA,0.14,VWS V14.01,2013-01-09 09:50:00,
2013-01-09 03:55:00,44.2,42.3,30.28,WNW,296,0.0,6.0,93,0.08,,-RA,0.14,VWS V14.01,2013-01-09 09:55:00,
2013-01-09 04:00:00,44.2,42.6,30.29,WNW,296,0.0,1.5,94,0.04,,-RA,0.14,VWS V14.01,2013-01-09 10:00:00,
2013-01-09 04:05:00,44.3,42.7,30.28,WNW,296,0.0,1.5,94,0.04,,-RA,0.14,VWS V14.01,2013-01-09 10:05:00,
2013-01-09 04:10:00,44.2,42.6,30.29,WNW,296,0.0,1.5,94,0.04,,-RA,0.14,VWS V14.01,2013-01-09 10:10:00,
2013-01-09 04:15:00,44.2,42.6,30.29,WNW,296,0.0,1.5,94,0.04,,-RA,0.14,VWS V14.01,2013-01-09 10:15:00,
2013-01-09 04:20:00,44.2,42.6,30.29,WNW,296,0.0,1.5,94,0.05,,-RA,0.15,VWS V14.01,2013-01-09 10:20:00,
2013-01-09 04:25:00,44.2,42.6,30.29,WNW,296,0.0,3.0,94,0.06,,-RA,0.16,VWS V14.01,2013-01-09 10:25:00,
2013-01-09 04:30:00,44.1,42.5,30.29,WNW,296,0.0,0.0,94,0.05,,-RA,0.17,VWS V14.01,2013-01-09 10:30:00,
2013-01-09 04:35:00,44.2,42.6,30.29,WNW,296,0.0,0.0,94,0.05,,-RA,0.17,VWS V14.01,2013-01-09 10:35:00,
2013-01-09 04:40:00,44.2,42.6,30.29,WNW,296,0.0,0.0,94,0.06,,-RA,0.18,VWS V14.01,2013-01-09 10:40:00,
2013-01-09 04:45:00,44.2,42.6,30.28,WNW,296,0.0,1.5,94,0.06,,-RA,0.18,VWS V14.01,2013-01-09 10:45:00,
2013-01-09 04:50:00,44.1,42.5,30.27,WNW,296,1.5,3.0,94,0.06,,-RA,0.18,VWS V14.01,2013-01-09 10:50:00,
2013-01-09 04:55:00,44.4,43.1,30.28,WNW,296,0.0,6.0,95,0.06,,-RA,0.18,VWS V14.01,2013-01-09 10:55:00,
2013-01-09 05:00:00,44.5,42.9,30.28,WNW,296,0.0,0.0,94,0.04,,,0.18,VWS V14.01,2013-01-09 11:00:00,
2013-01-09 05:05:00,44.5,42.9,30.28,WNW,296,0.0,0.0,94,0.04,,,0.18,VWS V14.01,2013-01-09 11:05:00,
2013-01-09 05:10:00,44.4,42.8,30.29,WNW,296,0.0,1.5,94,0.04,,-RA,0.18,VWS V14.01,2013-01-09 11:10:00,
2013-01-09 05:15:00,44.3,42.7,30.29,WNW,296,0.0,1.5,94,0.04,,-RA,0.18,VWS V14.01,2013-01-09 11:15:00,
2013-01-09 05:20:00,44.3,42.7,30.29,WNW,296,0.0,1.5,94,0.04,,-RA,0.18,VWS V14.01,2013-01-09 11:20:00,
2013-01-09 05:25:00,44.3,43.0,30.29,WNW,296,0.0,1.5,95,0.04,,-RA,0.18,VWS V14.01,2013-01-09 11:25:00,
2013-01-09 05:30:00,44.4,43.1,30.29,WNW,296,0.0,0.0,95,0.02,,,0.18,VWS V14.01,2013-01-09 11:30:00,
2013-01-09 05:35:00,44.4,43.1,30.28,WNW,296,0.0,0.0,95,0.02,,,0.18,VWS V14.01,2013-01-09 11:35:00,
2013-01-09 05:40:00,44.4,43.1,30.28,WNW,296,0.0,0.0,95,0.02,,,0.18,VWS V14.01,2013-01-09 11:40:00,
2013-01-09 05:45:00,44.3,43.0,30.29,WNW,296,0.0,0.0,95,0.02,,,0.18,VWS V14.01,2013-01-09 11:45:00,
2013-01-09 05:50:00,44.3,43.0,30.28,WNW,296,0.0,0.0,95,0.02,,,0.18,VWS V14.01,2013-01-09 11:50:00,
2013-01-09 05:55:00,44.3,43.0,30.29,WNW,296,0.0,0.0,95,0.02,,,0.18,VWS V14.01,2013-01-09 11:55:00,
2013-01-09 06:00:00,44.2,42.6,30.30,WNW,296,0.0,0.0,94,0.00,,,0.18,VWS V14.01,2013-01-09 12:00:00,
2013-01-09 06:05:00,44.2,42.6,30.29,WNW,296,0.0,0.0,94,0.00,,,0.18,VWS V14.01,2013-01-09 12:05:00,
2013-01-09 06:10:00,44.0,42.4,30.30,WNW,296,0.0,0.0,94,0.00,,,0.18,VWS V14.01,2013-01-09 12:10:00,
2013-01-09 06:16:00,44.0,42.4,30.30,WNW,296,0.0,0.0,94,0.00,,,0.18,VWS V14.01,2013-01-09 12:16:00,
2013-01-09 06:21:00,43.9,42.6,30.30,WNW,296,0.0,0.0,95,0.00,,,0.18,VWS V14.01,2013-01-09 12:21:00,
2013-01-09 06:26:00,43.9,42.6,30.30,WNW,296,0.0,0.0,95,0.00,,,0.18,VWS V14.01,2013-01-09 12:26:00,
2013-01-09 06:31:00,43.8,42.5,30.30,WNW,296,0.0,0.0,95,0.00,,,0.18,VWS V14.01,2013-01-09 12:31:00,
2013-01-09 06:36:00,43.7,42.1,30.30,WNW,296,0.0,0.0,94,0.00,,,0.18,VWS V14.01,2013-01-09 12:36:00,
2013-01-09 06:41:00,43.7,42.4,30.30,WNW,296,0.0,0.0,95,0.00,,,0.18,VWS V14.01,2013-01-09 12:41:00,
2013-01-09 06:46:00,43.6,42.3,30.31,WNW,296,0.0,0.0,95,0.00,,,0.18,VWS V14.01,2013-01-09 12:46:00,
2013-01-09 06:51:00,43.5,41.9,30.31,WNW,296,0.0,0.0,94,0.00,,,0.18,VWS V14.01,2013-01-09 12:51:00,
2013-01-09 06:56:00,43.4,41.8,30.32,WNW,296,0.0,0.0,94,0.00,,,0.18,VWS V14.01,2013-01-09 12:56:00,
2013-01-09 07:01:00,43.3,41.7,30.32,WNW,296,0.0,0.0,94,0.00,,,0.18,VWS V14.01,2013-01-09 13:01:00,
2013-01-09 07:06:00,43.2,41.6,30.32,WNW,296,0.0,0.0,94,0.00,,,0.18,VWS V14.01,2013-01-09 13:06:00,
2013-01-09 07:11:00,43.1,41.5,30.32,WNW,296,0.0,0.0,94,0.00,,,0.18,VWS V14.01,2013-01-09 13:11:00,
2013-01-09 07:16:00,42.9,41.3,30.33,WNW,296,0.0,0.0,94,0.00,,,0.18,VWS V14.01,2013-01-09 13:16:00,
2013-01-09 07:21:00,42.9,41.3,30.33,WNW,296,0.0,0.0,94,0.00,,,0.18,VWS V14.01,2013-01-09 13:21:00,
2013-01-09 07:26:00,42.8,41.2,30.34,WNW,296,0.0,0.0,94,0.00,,,0.18,VWS V14.01,2013-01-09 13:26:00,
2013-01-09 07:31:00,42.7,41.1,30.35,WNW,296,0.0,0.0,94,0.00,,,0.18,VWS V14.01,2013-01-09 13:31:00,
2013-01-09 07:36:00,42.6,41.0,30.35,WNW,296,0.0,0.0,94,0.00,,,0.18,VWS V14.01,2013-01-09 13:36:00,
2013-01-09 07:41:00,42.5,41.2,30.35,WNW,296,0.0,0.0,95,0.00,,,0.18,VWS V14.01,2013-01-09 13:41:00,
2013-01-09 07:46:00,42.6,41.3,30.34,WNW,296,0.0,0.0,95,0.00,,,0.18,VWS V14.01,2013-01-09 13:46:00,
2013-01-09 07:51:00,42.6,41.3,30.35,WNW,296,0.0,0.0,95,0.00,,,0.18,VWS V14.01,2013-01-09 13:51:00,
2013-01-09 07:56:00,42.7,41.4,30.35,WNW,296,0.0,0.0,95,0.00,,,0.18,VWS V14.01,2013-01-09 13:56:00,
2013-01-09 08:01:00,42.8,41.5,30.35,WNW,296,0.0,0.0,95,0.00,,,0.18,VWS V14.01,2013-01-09 14:01:00,
2013-01-09 08:06:00,42.9,41.6,30.35,WNW,296,0.0,0.0,95,0.00,,,0.18,VWS V14.01,2013-01-09 14:06:00,
2013-01-09 08:11:00,42.9,41.6,30.36,WNW,296,0.0,0.0,95,0.00,,,0.18,VWS V14.01,2013-01-09 14:11:00,
2013-01-09 08:16:00,42.9,41.6,30.36,WNW,296,0.0,0.0,95,0.00,,,0.18,VWS V14.01,2013-01-09 14:16:00,
2013-01-09 08:21:00,42.9,41.6,30.36,WNW,296,0.0,0.0,95,0.00,,,0.18,VWS V14.01,2013-01-09 14:21:00,
2013-01-09 08:26:00,42.8,41.5,30.36,WNW,296,0.0,0.0,95,0.00,,,0.18,VWS V14.01,2013-01-09 14:26:00,
2013-01-09 08:31:00,42.7,41.4,30.36,WNW,296,0.0,0.0,95,0.00,,,0.18,VWS V14.01,2013-01-09 14:31:00,
2013-01-09 08:36:00,42.6,41.3,30.37,WNW,296,0.0,0.0,95,0.00,,,0.18,VWS V14.01,2013-01-09 14:36:00,
2013-01-09 08:41:00,42.5,41.2,30.37,WNW,296,0.0,0.0,95,0.00,,,0.18,VWS V14.01,2013-01-09 14:41:00,
2013-01-09 08:46:00,42.5,41.2,30.37,WNW,296,0.0,0.0,95,0.00,,,0.18,VWS V14.01,2013-01-09 14:46:00,
2013-01-09 08:51:00,42.4,41.1,30.37,WNW,296,0.0,0.0,95,0.00,,,0.18,VWS V14.01,2013-01-09 14:51:00,
2013-01-09 08:56:00,42.3,41.0,30.38,WNW,296,0.0,0.0,95,0.00,,,0.18,VWS V14.01,2013-01-09 14:56:00,
2013-01-09 09:01:00,42.4,41.1,30.39,WNW,296,0.0,0.0,95,0.00,,,0.18,VWS V14.01,2013-01-09 15:01:00,
2013-01-09 09:06:00,42.9,41.6,30.38,WNW,296,0.0,0.0,95,0.00,,,0.18,VWS V14.01,2013-01-09 15:06:00,
2013-01-09 09:11:00,43.9,42.8,30.39,WNW,296,0.0,0.0,96,0.00,,,0.18,VWS V14.01,2013-01-09 15:11:00,
2013-01-09 09:16:00,44.7,43.6,30.39,WNW,296,0.0,1.5,96,0.00,,,0.18,VWS V14.01,2013-01-09 15:16:00,
2013-01-09 09:21:00,45.3,44.2,30.39,East,98,0.0,1.5,96,0.00,,,0.18,VWS V14.01,2013-01-09 15:21:00,
2013-01-09 09:26:00,45.8,44.7,30.39,East,101,0.0,1.5,96,0.00,,,0.18,VWS V14.01,2013-01-09 15:26:00,
2013-01-09 09:31:00,46.4,45.3,30.39,East,101,0.0,1.5,96,0.00,,,0.18,VWS V14.01,2013-01-09 15:31:00,
2013-01-09 09:36:00,46.9,45.8,30.39,ESE,102,0.0,3.0,96,0.00,,,0.18,VWS V14.01,2013-01-09 15:36:00,
2013-01-09 09:41:00,47.2,46.1,30.39,ESE,102,0.0,6.0,96,0.00,,,0.18,VWS V14.01,2013-01-09 15:41:00,
2013-01-09 09:46:00,47.4,46.3,30.40,ESE,102,0.0,6.0,96,0.00,,,0.18,VWS V14.01,2013-01-09 15:46:00,
2013-01-09 09:51:00,47.7,46.6,30.40,ESE,102,0.0,6.0,96,0.00,,,0.18,VWS V14.01,2013-01-09 15:51:00,
2013-01-09 09:56:00,48.1,47.0,30.40,ESE,102,0.0,6.0,96,0.00,,,0.18,VWS V14.01,2013-01-09 15:56:00,
2013-01-09 10:01:00,48.5,47.4,30.40,ESE,102,0.0,0.0,96,0.00,,,0.18,VWS V14.01,2013-01-09 16:01:00,
2013-01-09 10:06:00,48.7,47.3,30.40,ESE,102,0.0,0.0,95,0.00,,,0.18,VWS V14.01,2013-01-09 16:06:00,
2013-01-09 10:11:00,49.0,47.6,30.40,ESE,102,0.0,0.0,95,0.00,,,0.18,VWS V14.01,2013-01-09 16:11:00,
2013-01-09 10:16:00,49.3,47.9,30.40,ESE,102,0.0,3.0,95,0.00,,,0.18,VWS V14.01,2013-01-09 16:16:00,
2013-01-09 10:21:00,49.8,48.4,30.40,ESE,102,0.0,3.0,95,0.00,,,0.18,VWS V14.01,2013-01-09 16:21:00,
2013-01-09 10:26:00,50.1,48.4,30.39,ESE,102,0.0,3.0,94,0.00,,,0.18,VWS V14.01,2013-01-09 16:26:00,
2013-01-09 10:31:00,50.5,48.6,30.39,ESE,102,0.0,0.0,93,0.00,,,0.18,VWS V14.01,2013-01-09 16:31:00,
2013-01-09 10:37:00,50.8,48.6,30.39,ESE,102,1.5,6.0,92,0.00,,,0.18,VWS V14.01,2013-01-09 16:37:00,
2013-01-09 10:42:00,51.0,48.5,30.39,East,95,0.0,6.0,91,0.00,,,0.18,VWS V14.01,2013-01-09 16:42:00,
2013-01-09 10:47:00,51.4,48.0,30.39,ENE,76,1.5,6.0,88,0.00,,,0.18,VWS V14.01,2013-01-09 16:47:00,
2013-01-09 10:52:00,51.9,48.2,30.39,ENE,76,3.0,6.0,87,0.00,,,0.18,VWS V14.01,2013-01-09 16:52:00,
2013-01-09 10:57:00,52.3,48.2,30.39,North,355,6.0,7.5,86,0.00,,,0.18,VWS V14.01,2013-01-09 16:57:00,
2013-01-09 11:02:00,52.5,47.5,30.39,NW,326,1.5,3.0,83,0.00,,CLR,0.18,VWS V14.01,2013-01-09 17:02:00,
2013-01-09 11:07:00,52.6,47.6,30.38,NW,326,0.0,3.0,83,0.00,,CLR,0.18,VWS V14.01,2013-01-09 17:07:00,
2013-01-09 11:12:00,52.6,47.3,30.38,NW,326,0.0,6.0,82,0.00,,CLR,0.18,VWS V14.01,2013-01-09 17:12:00,
2013-01-09 11:17:00,52.7,47.0,30.38,NW,326,0.0,6.0,81,0.00,,CLR,0.18,VWS V14.01,2013-01-09 17:17:00,
2013-01-09 11:22:00,53.0,47.3,30.38,NW,326,0.0,6.0,81,0.00,,CLR,0.18,VWS V14.01,2013-01-09 17:22:00,
2013-01-09 11:27:00,53.1,47.4,30.38,NW,326,0.0,6.0,81,0.00,,CLR,0.18,VWS V14.01,2013-01-09 17:27:00,
2013-01-09 11:32:00,53.3,47.6,30.37,NW,326,0.0,0.0,81,0.00,,CLR,0.18,VWS V14.01,2013-01-09 17:32:00,
2013-01-09 11:37:00,53.6,47.3,30.37,NW,326,0.0,1.5,79,0.00,,CLR,0.18,VWS V14.01,2013-01-09 17:37:00,
2013-01-09 11:42:00,53.9,47.5,30.37,NW,326,0.0,1.5,79,0.00,,CLR,0.18,VWS V14.01,2013-01-09 17:42:00,
2013-01-09 11:47:00,54.0,47.3,30.37,NW,326,0.0,1.5,78,0.00,,CLR,0.18,VWS V14.01,2013-01-09 17:47:00,
2013-01-09 11:52:00,54.4,47.7,30.36,NW,326,0.0,6.0,78,0.00,,CLR,0.18,VWS V14.01,2013-01-09 17:52:00,
2013-01-09 11:57:00,54.8,48.1,30.36,NW,326,3.0,6.0,78,0.00,,CLR,0.18,VWS V14.01,2013-01-09 17:57:00,
2013-01-09 12:02:00,55.0,47.6,30.36,NW,326,0.0,0.0,76,0.00,,CLR,0.18,VWS V14.01,2013-01-09 18:02:00,
2013-01-09 12:07:00,55.2,48.1,30.36,NW,326,3.0,3.0,77,0.00,,CLR,0.18,VWS V14.01,2013-01-09 18:07:00,
2013-01-09 12:12:00,55.5,47.7,30.36,NW,326,3.0,6.0,75,0.00,,CLR,0.18,VWS V14.01,2013-01-09 18:12:00,
2013-01-09 12:17:00,55.5,47.0,30.36,NW,326,0.0,6.0,73,0.00,,CLR,0.18,VWS V14.01,2013-01-09 18:17:00,
2013-01-09 12:22:00,55.5,47.4,30.36,NW,326,3.0,6.0,74,0.00,,CLR,0.18,VWS V14.01,2013-01-09 18:22:00,
2013-01-09 12:27:00,55.4,47.3,30.37,NNW,327,6.0,7.5,74,0.00,,CLR,0.18,VWS V14.01,2013-01-09 18:27:00,
2013-01-09 12:32:00,55.4,46.9,30.36,NNW,331,0.0,6.0,73,0.00,,CLR,0.18,VWS V14.01,2013-01-09 18:32:00,
2013-01-09 12:37:00,55.4,47.3,30.36,NNW,331,0.0,7.5,74,0.00,,CLR,0.18,VWS V14.01,2013-01-09 18:37:00,
2013-01-09 12:41:00,55.5,47.0,30.36,NNW,332,0.0,7.5,73,0.00,,CLR,0.18,VWS V14.01,2013-01-09 18:41:00,
2013-01-09 12:42:00,55.5,47.4,30.36,NNW,332,0.0,7.5,74,0.00,,CLR,0.18,VWS V14.01,2013-01-09 18:42:00,
2013-01-09 12:44:00,55.7,47.9,30.36,NNW,331,0.0,7.5,75,0.00,,CLR,0.18,VWS V14.01,2013-01-09 18:44:00,
2013-01-09 12:48:00,56.0,47.5,30.37,NNW,331,3.0,7.5,73,0.00,,CLR,0.18,VWS V14.01,2013-01-09 18:48:00,
2013-01-09 12:49:00,56.1,47.6,30.37,NNW,331,0.0,7.5,73,0.00,,CLR,0.18,VWS V14.01,2013-01-09 18:49:00,
2013-01-09 12:54:00,56.5,47.6,30.37,NNW,331,0.0,7.5,72,0.00,,CLR,0.18,VWS V14.01,2013-01-09 18:54:00,
2013-01-09 12:59:00,56.7,47.8,30.37,NNW,331,1.5,7.5,72,0.00,,CLR,0.18,VWS V14.01,2013-01-09 18:59:00,
2013-01-09 13:04:00,56.8,47.9,30.37,NNW,332,1.5,7.5,72,0.00,,CLR,0.18,VWS V14.01,2013-01-09 19:04:00,
2013-01-09 13:09:00,56.8,48.2,30.37,NNE,19,6.0,7.5,73,0.00,,CLR,0.18,VWS V14.01,2013-01-09 19:09:00,
2013-01-09 13:14:00,56.7,48.5,30.37,NE,44,6.0,9.0,74,0.00,,CLR,0.18,VWS V14.01,2013-01-09 19:14:00,
2013-01-09 13:19:00,56.9,48.3,30.37,NE,38,4.5,9.0,73,0.00,,CLR,0.18,VWS V14.01,2013-01-09 19:19:00,
2013-01-09 13:24:00,57.0,48.4,30.37,NE,45,0.0,9.0,73,0.00,,CLR,0.18,VWS V14.01,2013-01-09 19:24:00,
2013-01-09 13:29:00,57.1,45.9,30.37,NNE,25,0.0,9.0,66,0.00,,CLR,0.18,VWS V14.01,2013-01-09 19:29:00,
2013-01-09 13:34:00,57.2,47.1,30.37,NE,42,4.5,10.5,69,0.00,,CLR,0.18,VWS V14.01,2013-01-09 19:34:00,
2013-01-09 13:39:00,57.0,45.8,30.37,NNE,25,7.5,10.5,66,0.00,,CLR,0.18,VWS V14.01,2013-01-09 19:39:00,
2013-01-09 13:44:00,56.8,44.3,30.37,NNE,17,6.0,10.5,63,0.00,,CLR,0.18,VWS V14.01,2013-01-09 19:44:00,
2013-01-09 13:49:00,56.7,42.1,30.37,North,360,4.5,10.5,58,0.00,,CLR,0.18,VWS V14.01,2013-01-09 19:49:00,
2013-01-09 13:54:00,56.6,42.5,30.38,North,355,3.0,10.5,59,0.00,,CLR,0.18,VWS V14.01,2013-01-09 19:54:00,
2013-01-09 13:59:00,56.5,43.7,30.37,North,355,3.0,10.5,62,0.00,,CLR,0.18,VWS V14.01,2013-01-09 19:59:00,
2013-01-09 14:04:00,56.5,42.8,30.37,North,355,0.0,7.5,60,0.00,,CLR,0.18,VWS V14.01,2013-01-09 20:04:00,
2013-01-09 14:09:00,56.7,43.8,30.38,North,355,3.0,7.5,62,0.00,,CLR,0.18,VWS V14.01,2013-01-09 20:09:00,
2013-01-09 14:14:00,56.7,44.7,30.38,North,355,3.0,7.5,64,0.00,,CLR,0.18,VWS V14.01,2013-01-09 20:14:00,
2013-01-09 14:19:00,56.6,45.4,30.38,NE,38,7.5,9.0,66,0.00,,CLR,0.18,VWS V14.01,2013-01-09 20:19:00,
2013-01-09 14:24:00,56.5,45.3,30.38,NNE,28,6.0,9.0,66,0.00,,CLR,0.18,VWS V14.01,2013-01-09 20:24:00,
2013-01-09 14:29:00,56.3,45.1,30.38,NNE,25,9.0,9.0,66,0.00,,CLR,0.18,VWS V14.01,2013-01-09 20:29:00,
2013-01-09 14:34:00,56.1,44.1,30.38,NNE,30,3.0,12.0,64,0.00,,CLR,0.18,VWS V14.01,2013-01-09 20:34:00,
2013-01-09 14:39:00,56.0,43.6,30.38,NNE,27,7.5,12.0,63,0.00,,CLR,0.18,VWS V14.01,2013-01-09 20:39:00,
2013-01-09 14:44:00,55.7,43.3,30.38,NNE,27,4.5,12.0,63,0.00,,CLR,0.18,VWS V14.01,2013-01-09 20:44:00,
2013-01-09 14:49:00,55.5,43.9,30.38,NNE,28,7.5,12.0,65,0.00,,CLR,0.18,VWS V14.01,2013-01-09 20:49:00,
2013-01-09 14:54:00,55.3,43.3,30.38,NNE,26,7.5,12.0,64,0.00,,CLR,0.18,VWS V14.01,2013-01-09 20:54:00,
2013-01-09 14:59:00,55.0,43.5,30.38,NNE,23,7.5,7.5,65,0.00,,CLR,0.18,VWS V14.01,2013-01-09 20:59:00,
2013-01-09 15:04:00,54.8,43.7,30.38,NNE,24,6.0,9.0,66,0.00,,CLR,0.18,VWS V14.01,2013-01-09 21:04:00,
2013-01-09 15:09:00,54.6,43.1,30.39,NNE,25,4.5,9.0,65,0.00,,CLR,0.18,VWS V14.01,2013-01-09 21:09:00,
2013-01-09 15:14:00,54.4,42.9,30.38,NNE,26,6.0,9.0,65,0.00,,CLR,0.18,VWS V14.01,2013-01-09 21:14:00,
2013-01-09 15:19:00,54.3,42.8,30.38,NNE,26,4.5,9.0,65,0.00,,CLR,0.18,VWS V14.01,2013-01-09 21:19:00,
2013-01-09 15:24:00,54.2,43.1,30.38,NNE,26,0.0,9.0,66,0.00,,CLR,0.18,VWS V14.01,2013-01-09 21:24:00,
2013-01-09 15:29:00,54.2,43.1,30.39,NNE,26,1.5,1.5,66,0.00,,CLR,0.18,VWS V14.01,2013-01-09 21:29:00,
2013-01-09 15:35:00,54.3,43.6,30.39,NNE,26,0.0,1.5,67,0.00,,CLR,0.18,VWS V14.01,2013-01-09 21:35:00,
2013-01-09 15:40:00,54.3,44.0,30.39,NNE,26,0.0,1.5,68,0.00,,CLR,0.18,VWS V14.01,2013-01-09 21:40:00,
2013-01-09 15:45:00,54.2,43.5,30.40,NNE,26,0.0,4.5,67,0.00,,CLR,0.18,VWS V14.01,2013-01-09 21:45:00,
2013-01-09 15:50:00,54.1,43.8,30.40,NNE,26,0.0,4.5,68,0.00,,CLR,0.18,VWS V14.01,2013-01-09 21:50:00,
2013-01-09 15:55:00,54.0,43.3,30.40,NNE,26,0.0,4.5,67,0.00,,CLR,0.18,VWS V14.01,2013-01-09 21:55:00,
2013-01-09 16:00:00,53.9,43.2,30.40,NNE,26,0.0,1.5,67,0.00,,CLR,0.18,VWS V14.01,2013-01-09 22:00:00,
2013-01-09 16:05:00,53.8,43.5,30.40,NNE,26,0.0,1.5,68,0.00,,CLR,0.18,VWS V14.01,2013-01-09 22:05:00,
2013-01-09 16:10:00,53.6,43.7,30.40,NNE,26,0.0,1.5,69,0.00,,CLR,0.18,VWS V14.01,2013-01-09 22:10:00,
2013-01-09 16:15:00,53.5,43.6,30.40,NNE,26,0.0,1.5,69,0.00,,CLR,0.18,VWS V14.01,2013-01-09 22:15:00,
2013-01-09 16:20:00,53.4,43.5,30.40,NNE,26,0.0,3.0,69,0.00,,CLR,0.18,VWS V14.01,2013-01-09 22:20:00,
2013-01-09 16:25:00,53.1,43.6,30.40,NNE,26,0.0,3.0,70,0.00,,CLR,0.18,VWS V14.01,2013-01-09 22:25:00,
2013-01-09 16:30:00,52.8,43.3,30.40,NNE,26,0.0,0.0,70,0.00,,CLR,0.18,VWS V14.01,2013-01-09 22:30:00,
2013-01-09 16:35:00,52.5,43.0,30.41,NNE,26,0.0,0.0,70,0.00,,CLR,0.18,VWS V14.01,2013-01-09 22:35:00,
2013-01-09 16:40:00,52.4,42.9,30.41,NNE,26,3.0,3.0,70,0.00,,CLR,0.18,VWS V14.01,2013-01-09 22:40:00,
2013-01-09 16:45:00,52.4,42.5,30.41,NNE,26,0.0,3.0,69,0.00,,CLR,0.18,VWS V14.01,2013-01-09 22:45:00,
2013-01-09 16:50:00,52.3,42.5,30.41,NNE,26,0.0,3.0,69,0.00,,CLR,0.18,VWS V14.01,2013-01-09 22:50:00,
2013-01-09 16:55:00,52.0,42.5,30.41,NNE,26,1.5,4.5,70,0.00,,CLR,0.18,VWS V14.01,2013-01-09 22:55:00,
2013-01-09 17:00:00,51.4,42.7,30.41,NNE,26,0.0,0.0,72,0.00,,CLR,0.18,VWS V14.01,2013-01-09 23:00:00,
2013-01-09 17:05:00,50.6,42.3,30.41,NNE,26,0.0,0.0,73,0.00,,CLR,0.18,VWS V14.01,2013-01-09 23:05:00,
2013-01-09 17:10:00,50.0,42.0,30.41,NNE,26,0.0,0.0,74,0.00,,CLR,0.18,VWS V14.01,2013-01-09 23:10:00,
2013-01-09 17:15:00,49.8,41.9,30.41,NNE,26,0.0,0.0,74,0.00,,CLR,0.18,VWS V14.01,2013-01-09 23:15:00,
2013-01-09 17:20:00,49.7,41.8,30.41,NNE,26,0.0,0.0,74,0.00,,CLR,0.18,VWS V14.01,2013-01-09 23:20:00,
2013-01-09 17:25:00,49.5,41.6,30.41,NNE,26,0.0,0.0,74,0.00,,CLR,0.18,VWS V14.01,2013-01-09 23:25:00,
2013-01-09 17:30:00,49.4,41.5,30.42,NNE,26,0.0,0.0,74,0.00,,CLR,0.18,VWS V14.01,2013-01-09 23:30:00,
2013-01-09 17:35:00,49.4,41.5,30.42,NNE,26,0.0,1.5,74,0.00,,CLR,0.18,VWS V14.01,2013-01-09 23:35:00,
2013-01-09 17:40:00,49.3,41.4,30.42,NNE,26,0.0,1.5,74,0.00,,CLR,0.18,VWS V14.01,2013-01-09 23:40:00,
2013-01-09 17:45:00,49.2,40.9,30.42,NNE,26,0.0,1.5,73,0.00,,CLR,0.18,VWS V14.01,2013-01-09 23:45:00,
2013-01-09 17:50:00,49.0,41.1,30.42,NNE,26,0.0,1.5,74,0.00,,CLR,0.18,VWS V14.01,2013-01-09 23:50:00,
2013-01-09 17:55:00,49.1,40.8,30.42,NNE,26,0.0,1.5,73,0.00,,CLR,0.18,VWS V14.01,2013-01-09 23:55:00,
2013-01-09 18:00:00,49.1,41.2,30.42,NNE,26,0.0,1.5,74,0.00,,CLR,0.18,VWS V14.01,2013-01-10 00:00:00,
2013-01-09 18:05:00,49.0,40.7,30.42,NNE,26,0.0,4.5,73,0.00,,CLR,0.18,VWS V14.01,2013-01-10 00:05:00,
2013-01-09 18:10:00,49.0,41.1,30.42,NNE,26,0.0,4.5,74,0.00,,CLR,0.18,VWS V14.01,2013-01-10 00:10:00,
2013-01-09 18:16:00,48.7,40.8,30.43,NNE,26,1.5,4.5,74,0.00,,CLR,0.18,VWS V14.01,2013-01-10 00:16:00,
2013-01-09 18:21:00,48.2,40.3,30.43,NNE,26,0.0,4.5,74,0.00,,CLR,0.18,VWS V14.01,2013-01-10 00:21:00,
2013-01-09 18:26:00,47.9,40.4,30.43,NNE,26,1.5,4.5,75,0.00,,CLR,0.18,VWS V14.01,2013-01-10 00:26:00,
2013-01-09 18:31:00,47.6,40.1,30.43,NNE,26,1.5,4.5,75,0.00,,CLR,0.18,VWS V14.01,2013-01-10 00:31:00,
2013-01-09 18:36:00,47.3,39.8,30.43,NNE,26,4.5,6.0,75,0.00,,CLR,0.18,VWS V14.01,2013-01-10 00:36:00,
2013-01-09 18:41:00,47.3,39.5,30.43,NNE,26,3.0,6.0,74,0.00,,CLR,0.18,VWS V14.01,2013-01-10 00:41:00,
2013-01-09 18:46:00,47.7,39.5,30.44,NNE,26,3.0,6.0,73,0.00,,CLR,0.18,VWS V14.01,2013-01-10 00:46:00,
2013-01-09 18:51:00,48.0,39.8,30.44,NNE,26,3.0,6.0,73,0.00,,CLR,0.18,VWS V14.01,2013-01-10 00:51:00,
2013-01-09 18:56:00,48.1,39.5,30.44,NNE,26,6.0,6.0,72,0.00,,CLR,0.18,VWS V14.01,2013-01-10 00:56:00,
2013-01-09 19:01:00,48.2,39.2,30.44,NNE,26,4.5,6.0,71,0.00,,CLR,0.18,VWS V14.01,2013-01-10 01:01:00,
2013-01-09 19:06:00,48.1,39.2,30.44,NNE,26,1.5,6.0,71,0.00,,CLR,0.18,VWS V14.01,2013-01-10 01:06:00,
2013-01-09 19:11:00,48.1,39.2,30.44,NNE,26,4.5,6.0,71,0.00,,CLR,0.18,VWS V14.01,2013-01-10 01:11:00,
2013-01-09 19:16:00,48.0,39.4,30.44,NNE,26,4.5,6.0,72,0.00,,CLR,0.18,VWS V14.01,2013-01-10 01:16:00,
2013-01-09 19:21:00,47.8,39.2,30.44,NNE,26,4.5,7.5,72,0.00,,CLR,0.18,VWS V14.01,2013-01-10 01:21:00,
2013-01-09 19:26:00,47.8,39.2,30.44,NNE,26,4.5,7.5,72,0.00,,CLR,0.18,VWS V14.01,2013-01-10 01:26:00,
2013-01-09 19:31:00,47.8,39.2,30.44,NNE,26,7.5,7.5,72,0.00,,CLR,0.18,VWS V14.01,2013-01-10 01:31:00,
2013-01-09 19:36:00,47.7,39.1,30.45,NNE,26,0.0,7.5,72,0.00,,CLR,0.18,VWS V14.01,2013-01-10 01:36:00,
2013-01-09 19:41:00,47.6,39.4,30.45,NNE,26,0.0,7.5,73,0.00,,CLR,0.18,VWS V14.01,2013-01-10 01:41:00,
2013-01-09 19:46:00,47.4,39.2,30.45,NNE,26,0.0,7.5,73,0.00,,CLR,0.18,VWS V14.01,2013-01-10 01:46:00,
2013-01-09 19:51:00,47.2,39.0,30.45,NNE,26,0.0,7.5,73,0.00,,CLR,0.18,VWS V14.01,2013-01-10 01:51:00,
2013-01-09 19:56:00,47.0,38.8,30.45,NNE,26,0.0,7.5,73,0.00,,CLR,0.18,VWS V14.01,2013-01-10 01:56:00,
2013-01-09 20:01:00,46.9,39.1,30.45,NNE,26,0.0,1.5,74,0.00,,CLR,0.18,VWS V14.01,2013-01-10 02:01:00,
2013-01-09 20:06:00,46.5,38.7,30.45,NNE,26,1.5,3.0,74,0.00,,CLR,0.18,VWS V14.01,2013-01-10 02:06:00,
2013-01-09 20:11:00,46.2,38.4,30.44,NNE,26,0.0,3.0,74,0.00,,CLR,0.18,VWS V14.01,2013-01-10 02:11:00,
2013-01-09 20:16:00,45.9,38.4,30.45,NNE,26,0.0,3.0,75,0.00,,CLR,0.18,VWS V14.01,2013-01-10 02:16:00,
2013-01-09 20:21:00,45.4,38.3,30.45,NNE,26,0.0,4.5,76,0.00,,CLR,0.18,VWS V14.01,2013-01-10 02:21:00,
2013-01-09 20:26:00,45.2,38.1,30.45,NNE,26,0.0,4.5,76,0.00,,CLR,0.18,VWS V14.01,2013-01-10 02:26:00,
2013-01-09 20:31:00,45.2,38.4,30.45,NNE,26,0.0,0.0,77,0.00,,CLR,0.18,VWS V14.01,2013-01-10 02:31:00,
2013-01-09 20:36:00,45.1,38.3,30.45,NNE,26,0.0,0.0,77,0.00,,CLR,0.18,VWS V14.01,2013-01-10 02:36:00,
2013-01-09 20:41:00,45.0,38.2,30.45,NNE,26,0.0,0.0,77,0.00,,CLR,0.18,VWS V14.01,2013-01-10 02:41:00,
2013-01-09 20:46:00,45.0,38.2,30.45,NNE,26,0.0,0.0,77,0.00,,CLR,0.18,VWS V14.01,2013-01-10 02:46:00,
2013-01-09 20:51:00,45.0,38.6,30.45,NNE,26,0.0,0.0,78,0.00,,CLR,0.18,VWS V14.01,2013-01-10 02:51:00,
2013-01-09 20:56:00,44.9,38.5,30.45,NNE,26,0.0,0.0,78,0.00,,CLR,0.18,VWS V14.01,2013-01-10 02:56:00,
2013-01-09 21:01:00,44.8,38.4,30.45,NNE,26,0.0,0.0,78,0.00,,CLR,0.18,VWS V14.01,2013-01-10 03:01:00,
2013-01-09 21:06:00,44.7,38.3,30.45,NNE,26,0.0,0.0,78,0.00,,CLR,0.18,VWS V14.01,2013-01-10 03:06:00,
2013-01-09 21:11:00,44.6,38.2,30.46,NNE,26,0.0,0.0,78,0.00,,CLR,0.18,VWS V14.01,2013-01-10 03:11:00,
2013-01-09 21:16:00,44.5,38.1,30.46,NNE,26,0.0,0.0,78,0.00,,CLR,0.18,VWS V14.01,2013-01-10 03:16:00,
2013-01-09 21:21:00,44.3,37.9,30.46,NNE,26,0.0,0.0,78,0.00,,CLR,0.18,VWS V14.01,2013-01-10 03:21:00,
2013-01-09 21:26:00,44.3,37.9,30.46,NNE,26,0.0,0.0,78,0.00,,CLR,0.18,VWS V14.01,2013-01-10 03:26:00,
2013-01-09 21:31:00,44.2,38.1,30.46,NNE,26,0.0,0.0,79,0.00,,CLR,0.18,VWS V14.01,2013-01-10 03:31:00,
2013-01-09 21:36:00,44.1,38.3,30.46,NNE,26,0.0,0.0,80,0.00,,CLR,0.18,VWS V14.01,2013-01-10 03:36:00,
2013-01-09 21:41:00,44.0,38.2,30.46,NNE,26,0.0,0.0,80,0.00,,CLR,0.18,VWS V14.01,2013-01-10 03:41:00,
2013-01-09 21:47:00,44.0,38.2,30.46,NNE,26,0.0,0.0,80,0.00,,CLR,0.18,VWS V14.01,2013-01-10 03:47:00,
2013-01-09 21:52:00,44.0,38.2,30.45,NNE,26,0.0,0.0,80,0.00,,CLR,0.18,VWS V14.01,2013-01-10 03:52:00,
2013-01-09 21:57:00,43.9,38.5,30.45,NNE,26,0.0,0.0,81,0.00,,CLR,0.18,VWS V14.01,2013-01-10 03:57:00,
2013-01-09 22:02:00,44.0,38.9,30.46,NNE,26,0.0,1.5,82,0.00,,CLR,0.18,VWS V14.01,2013-01-10 04:02:00,
2013-01-09 22:07:00,44.1,39.0,30.45,NNE,26,0.0,1.5,82,0.00,,CLR,0.18,VWS V14.01,2013-01-10 04:07:00,
2013-01-09 22:12:00,44.1,39.0,30.45,NNE,26,3.0,4.5,82,0.00,,CLR,0.18,VWS V14.01,2013-01-10 04:12:00,
2013-01-09 22:17:00,44.1,39.0,30.45,NNE,26,3.0,6.0,82,0.00,,CLR,0.18,VWS V14.01,2013-01-10 04:17:00,
2013-01-09 22:22:00,44.1,39.0,30.45,NNE,26,4.5,6.0,82,0.00,,CLR,0.18,VWS V14.01,2013-01-10 04:22:00,
2013-01-09 22:27:00,44.1,38.7,30.45,NNE,26,4.5,6.0,81,0.00,,CLR,0.18,VWS V14.01,2013-01-10 04:27:00,
2013-01-09 22:32:00,44.0,38.5,30.44,NNE,26,4.5,6.0,81,0.00,,CLR,0.18,VWS V14.01,2013-01-10 04:32:00,
2013-01-09 22:37:00,44.0,38.5,30.44,NNE,28,4.5,6.0,81,0.00,,CLR,0.18,VWS V14.01,2013-01-10 04:37:00,
2013-01-09 22:42:00,44.0,38.5,30.45,NNE,28,4.5,7.5,81,0.00,,CLR,0.18,VWS V14.01,2013-01-10 04:42:00,
2013-01-09 22:47:00,44.0,38.5,30.44,NNE,28,3.0,7.5,81,0.00,,CLR,0.18,VWS V14.01,2013-01-10 04:47:00,
2013-01-09 22:52:00,44.0,38.5,30.44,NNE,28,0.0,7.5,81,0.00,,CLR,0.18,VWS V14.01,2013-01-10 04:52:00,
2013-01-09 22:57:00,44.0,38.5,30.45,NNE,30,1.5,7.5,81,0.00,,CLR,0.18,VWS V14.01,2013-01-10 04:57:00,
2013-01-09 23:00:00,44.1,38.7,30.45,NNE,30,0.0,3.0,81,0.00,,CLR,0.18,VWS V14.01,2013-01-10 05:00:00,
2013-01-09 23:02:00,44.0,38.5,30.45,NNE,30,0.0,3.0,81,0.00,,CLR,0.18,VWS V14.01,2013-01-10 05:02:00,
2013-01-09 23:03:00,44.0,38.5,30.45,NNE,30,0.0,3.0,81,0.00,,CLR,0.18,VWS V14.01,2013-01-10 05:03:00,
2013-01-09 23:08:00,44.1,38.7,30.45,NNE,30,0.0,3.0,81,0.00,,CLR,0.18,VWS V14.01,2013-01-10 05:08:00,
2013-01-09 23:13:00,44.1,38.7,30.45,NNE,30,1.5,3.0,81,0.00,,CLR,0.18,VWS V14.01,2013-01-10 05:13:00,
2013-01-09 23:18:00,44.1,38.7,30.45,NE,37,0.0,7.5,81,0.00,,CLR,0.18,VWS V14.01,2013-01-10 05:18:00,
2013-01-09 23:23:00,44.1,38.3,30.45,NE,38,1.5,7.5,80,0.00,,CLR,0.18,VWS V14.01,2013-01-10 05:23:00,
2013-01-09 23:28:00,44.1,38.3,30.45,ENE,63,0.0,7.5,80,0.00,,CLR,0.18,VWS V14.01,2013-01-10 05:28:00,
2013-01-09 23:33:00,44.1,38.3,30.45,ENE,63,0.0,1.5,80,0.00,,CLR,0.18,VWS V14.01,2013-01-10 05:33:00,
2013-01-09 23:38:00,44.1,38.3,30.45,ENE,63,0.0,3.0,80,0.00,,CLR,0.18,VWS V14.01,2013-01-10 05:38:00,
2013-01-09 23:43:00,44.1,38.3,30.45,ENE,63,3.0,3.0,80,0.00,,CLR,0.18,VWS V14.01,2013-01-10 05:43:00,
2013-01-09 23:48:00,44.1,38.3,30.45,ENE,63,0.0,4.5,80,0.00,,CLR,0.18,VWS V14.01,2013-01-10 05:48:00,
2013-01-09 23:53:00,44.1,38.3,30.46,ENE,63,0.0,4.5,80,0.00,,CLR,0.18,VWS V14.01,2013-01-10 05:53:00,
2013-01-09 23:58:00,44.1,38.0,30.45,ENE,63,0.0,4.5,79,0.00,,CLR,0.18,VWS V14.01,2013-01-10 05:58:00,